Middleton, WI

2:22 PM CST on December 02, 2016 (GMT -0600)
Middleton

Weather History for KC29 - January, 2013

Change the Weather History Date:

Saturday, January 19, 2013

  Actual Average (KMSN) Record (KMSN)
Temperature  
Mean Temperature 32 °F 18 °F  
Max Temperature 47 °F 26 °F 47 °F (1933)
Min Temperature 16 °F 11 °F -27 °F (1994)
Degree Days  
Heating Degree Days 34 47  
Month to date heating degree days 882  
Since 1 July heating degree days 3761  
Cooling Degree Days 0 0  
Month to date cooling degree days 0  
Year to date cooling degree days 0  
Moisture  
Dew Point 25 °F    
Average Humidity 62    
Maximum Humidity 78    
Minimum Humidity 38    
Precipitation  
Precipitation 0.00 in 0.04 in 1.07 in (1995)
Month to date precipitation 0.76  
Year to date precipitation 0.76  
Snow  
Snow 0.00 in 0.40 in 12.60 in (1995)
Month to date snowfall 7.9  
Since 1 July snowfall 25.5  
Snow Depth -    
Sea Level Pressure  
Sea Level Pressure 29.77 in    
Wind  
Wind Speed 13 mph (WSW)    
Max Wind Speed 36 mph    
Max Gust Speed 46 mph    
Visibility 10 miles    
Events      
T = Trace of Precipitation, MM = Missing Value Source: NWS Daily Summary

Daily Weather History Graph

Daily Weather History Graph

Search for Another Location

Airport or City:

Trip Planner

Search our weather history database for the weather conditions in past years. The results will help you decide how hot, cold, wet, or windy it might be!

Date:

Astronomy

Jan. 19, 2013 Rise Set
Actual Time 7:24 AM CST 4:53 PM CST
Civil Twilight 6:53 AM CST 5:25 PM CST
Nautical Twilight 6:18 AM CST 5:59 PM CST
Astronomical Twilight 5:44 AM CST 6:33 PM CST
Moon 11:21 AM CST (1/19) 12:56 AM CST (1/19)
Length of Visible Light 10h 31m
Length of Day
9h 29m
First Quarter, 57% of the Moon is Illuminated
Jan 19
First Quarter
Jan 26
Full
Feb 3
Last Quarter
Feb 10
New
Feb 17
First Quarter

Hourly Weather History & Observations

Time (CST) Temp. Windchill Dew Point Humidity Pressure Visibility Wind Dir Wind Speed Gust Speed Precip Events Conditions
12:15 AM 39.6 °F 32.5 °F 30.7 °F 71% 29.81 in 10.0 mi West 11.5 mph - N/A   Clear
12:35 AM 39.2 °F 32.5 °F 30.7 °F 72% 29.82 in 10.0 mi West 10.4 mph - N/A   Clear
12:55 AM 39.4 °F 32.3 °F 30.9 °F 72% 29.81 in 10.0 mi WSW 11.5 mph - N/A   Clear
1:15 AM 38.7 °F 32.9 °F 30.7 °F 73% 29.82 in 10.0 mi WSW 8.1 mph - N/A   Clear
1:35 AM 39.0 °F 33.4 °F 30.6 °F 72% 29.82 in 10.0 mi SW 8.1 mph - N/A   Clear
1:55 AM 39.2 °F 33.0 °F 30.6 °F 71% 29.83 in 10.0 mi SW 9.2 mph - N/A   Clear
2:15 AM 38.8 °F 32.1 °F 30.6 °F 72% 29.83 in 10.0 mi WSW 10.4 mph - N/A   Clear
2:35 AM 38.3 °F 34.8 °F 30.6 °F 74% 29.83 in 10.0 mi SW 4.6 mph - N/A   Scattered Clouds
2:55 AM 38.3 °F 33.9 °F 30.7 °F 74% 29.83 in 10.0 mi SW 5.8 mph - N/A   Mostly Cloudy
3:15 AM 38.5 °F 34.1 °F 30.7 °F 74% 29.82 in 10.0 mi SW 5.8 mph - N/A   Overcast
3:35 AM 38.5 °F 35.0 °F 30.7 °F 74% 29.82 in 10.0 mi SW 4.6 mph - N/A   Overcast
3:55 AM 38.3 °F - 30.7 °F 74% 29.82 in 10.0 mi Calm Calm - N/A   Overcast
4:15 AM 37.8 °F 34.2 °F 30.9 °F 76% 29.82 in 10.0 mi SSW 4.6 mph - N/A   Overcast
4:35 AM 37.4 °F 32.1 °F 30.9 °F 77% 29.81 in 10.0 mi SSW 6.9 mph - N/A   Scattered Clouds
4:55 AM 37.4 °F 32.8 °F 30.9 °F 77% 29.80 in 10.0 mi SSW 5.8 mph - N/A   Scattered Clouds
5:15 AM 37.4 °F 33.8 °F 30.9 °F 77% 29.80 in 10.0 mi SSW 4.6 mph - N/A   Overcast
5:35 AM 37.2 °F 32.6 °F 30.9 °F 78% 29.80 in 10.0 mi SSW 5.8 mph - N/A   Overcast
6:35 AM 37.6 °F 33.1 °F 30.9 °F 77% 29.80 in 10.0 mi SW 5.8 mph - N/A   Overcast
6:55 AM 37.4 °F 33.8 °F 30.9 °F 77% 29.79 in 10.0 mi SSW 4.6 mph - N/A   Overcast
7:15 AM 37.4 °F 32.8 °F 30.9 °F 77% 29.78 in 10.0 mi SSW 5.8 mph - N/A   Overcast
7:55 AM 37.6 °F 31.0 °F 30.9 °F 77% 29.78 in 10.0 mi SW 9.2 mph - N/A   Overcast
8:15 AM 38.3 °F 31.9 °F 31.1 °F 75% 29.77 in 10.0 mi SW 9.2 mph - N/A   Overcast
8:35 AM 38.5 °F 31.6 °F 31.1 °F 75% 29.76 in 10.0 mi SW 10.4 mph - N/A   Overcast
9:35 AM 39.4 °F 30.4 °F 31.1 °F 72% 29.74 in 10.0 mi SSW 17.3 mph - N/A   Overcast
9:55 AM 40.1 °F 32.7 °F 31.1 °F 70% 29.76 in 10.0 mi SW 12.7 mph 19.6 mph N/A   Scattered Clouds
10:15 AM 40.1 °F 33.6 °F 31.5 °F 71% 29.73 in 10.0 mi SSW 10.4 mph 17.3 mph N/A   Clear
10:35 AM 40.5 °F 34.1 °F 31.3 °F 70% 29.74 in 10.0 mi WSW 10.4 mph - N/A   Scattered Clouds
10:55 AM 41.0 °F 33.9 °F 31.5 °F 69% 29.73 in 10.0 mi SW 12.7 mph 19.6 mph N/A   Clear
11:15 AM 41.2 °F 35.5 °F 31.3 °F 68% 29.72 in 10.0 mi WSW 9.2 mph 18.4 mph N/A   Clear
11:35 AM 43.2 °F 36.2 °F 31.6 °F 64% 29.69 in 10.0 mi West 13.8 mph 21.9 mph N/A   Scattered Clouds
11:55 AM 43.2 °F 35.3 °F 30.9 °F 62% 29.69 in 10.0 mi WSW 17.3 mph - N/A   Scattered Clouds
12:15 PM 42.8 °F 35.4 °F 31.1 °F 63% 29.67 in 10.0 mi SW 15.0 mph 20.7 mph N/A   Clear
12:35 PM 43.7 °F 36.0 °F 31.3 °F 62% 29.67 in 10.0 mi WSW 17.3 mph - N/A   Clear
12:55 PM 43.9 °F 36.8 °F 31.1 °F 61% 29.67 in 10.0 mi WSW 15.0 mph 20.7 mph N/A   Clear
1:15 PM 44.4 °F 38.6 °F 30.9 °F 59% 29.67 in 10.0 mi West 11.5 mph 20.7 mph N/A   Clear
1:35 PM 46.9 °F - 31.1 °F 54% 29.66 in 10.0 mi WSW 11.5 mph 17.3 mph N/A   Clear
1:55 PM 47.8 °F - 30.7 °F 52% 29.65 in 10.0 mi WSW 11.5 mph - N/A   Clear
2:15 PM 47.5 °F - 30.6 °F 52% 29.65 in 10.0 mi WSW 11.5 mph 16.1 mph N/A   Clear
2:55 PM 46.0 °F 38.8 °F 30.4 °F 54% 29.66 in 10.0 mi West 18.4 mph 24.2 mph N/A   Clear
3:15 PM 47.5 °F - 30.4 °F 52% 29.66 in 10.0 mi WSW 10.4 mph - N/A   Mostly Cloudy
3:35 PM 46.9 °F - 30.7 °F 53% 29.66 in 10.0 mi WSW 13.8 mph 19.6 mph N/A   Scattered Clouds
3:55 PM 45.5 °F 40.8 °F 30.9 °F 57% 29.68 in 10.0 mi WSW 9.2 mph - N/A   Clear
4:15 PM 45.5 °F 39.6 °F 30.7 °F 56% 29.67 in 10.0 mi WSW 12.7 mph 16.1 mph N/A   Scattered Clouds
4:35 PM 44.8 °F 39.0 °F 30.6 °F 57% 29.68 in 10.0 mi WSW 11.5 mph 17.3 mph N/A   Scattered Clouds
4:55 PM 44.1 °F 35.4 °F 29.8 °F 57% 29.68 in 10.0 mi West 21.9 mph - N/A   Scattered Clouds
5:15 PM 45.3 °F 37.1 °F 27.3 °F 49% 29.68 in 10.0 mi West 21.9 mph 31.1 mph N/A   Mostly Cloudy
5:35 PM 43.7 °F 34.3 °F 27.9 °F 54% 29.69 in 10.0 mi West 25.3 mph 31.1 mph N/A   Scattered Clouds
5:55 PM 43.3 °F 33.2 °F 28.0 °F 55% 29.70 in 10.0 mi West 28.8 mph 39.1 mph N/A   Mostly Cloudy
6:15 PM 43.0 °F 32.4 °F 26.6 °F 52% 29.70 in 10.0 mi West 31.1 mph 38.0 mph N/A   Overcast
6:35 PM 41.9 °F 30.2 °F 25.7 °F 53% 29.71 in 10.0 mi West 35.7 mph 44.9 mph N/A   Overcast
6:55 PM 41.0 °F 30.9 °F 23.5 °F 50% 29.72 in 10.0 mi West 24.2 mph 39.1 mph N/A   Overcast
7:15 PM 39.9 °F 28.4 °F 17.1 °F 40% 29.71 in 10.0 mi West 29.9 mph 46.0 mph N/A   Mostly Cloudy
7:35 PM 37.9 °F 27.3 °F 15.3 °F 40% 29.72 in 10.0 mi WNW 21.9 mph 36.8 mph N/A   Scattered Clouds
7:55 PM 35.8 °F 23.7 °F 12.6 °F 38% 29.73 in 10.0 mi WNW 25.3 mph 40.3 mph N/A   Clear
8:15 PM 32.2 °F 17.9 °F 11.3 °F 42% 29.76 in 10.0 mi West 29.9 mph 46.0 mph N/A   Clear
8:55 PM 26.4 °F 9.8 °F 6.3 °F 42% 29.81 in 10.0 mi WNW 31.1 mph 40.3 mph N/A   Clear
9:15 PM 24.6 °F 6.4 °F 7.2 °F 48% 29.83 in 10.0 mi WNW 35.7 mph 44.9 mph N/A   Clear
9:35 PM 22.1 °F 3.6 °F 5.0 °F 48% 29.85 in 10.0 mi WNW 32.2 mph 43.7 mph N/A   Clear
9:55 PM 21.2 °F 3.5 °F 4.6 °F 49% 29.87 in 10.0 mi NW 27.6 mph 42.6 mph N/A   Clear
10:15 PM 20.3 °F 1.7 °F 3.9 °F 49% 29.88 in 10.0 mi WNW 29.9 mph 38.0 mph N/A   Clear
10:35 PM 19.6 °F 3.9 °F 4.3 °F 52% 29.90 in 10.0 mi WNW 19.6 mph 35.7 mph N/A   Scattered Clouds
10:55 PM 18.5 °F 0.9 °F 3.9 °F 53% 29.92 in 10.0 mi WNW 24.2 mph 34.5 mph N/A   Scattered Clouds
11:15 PM 17.6 °F 0.9 °F 3.6 °F 54% 29.94 in 10.0 mi WNW 20.7 mph 35.7 mph N/A   Mostly Cloudy
11:35 PM 16.7 °F -1.1 °F 3.0 °F 55% 29.95 in 10.0 mi WNW 23.0 mph 34.5 mph N/A   Overcast
11:55 PM 16.3 °F -2.7 °F 2.7 °F 55% 29.97 in 10.0 mi WNW 26.5 mph 33.4 mph N/A   Overcast